Time,TemperatureF,DewpointF,PressureIn,WindDirection,WindDirectionDegrees,WindSpeedMPH,WindSpeedGustMPH,Humidity,HourlyPrecipIn,Conditions,Clouds,dailyrainin,SoftwareType,DateUTC
2013-06-23 00:00:00,72.9,67.8,30.10,SSE,148,0.0,0.0,84,0.00,,,0.00,Wunderground v.1.15,2013-06-23 04:00:00,
2013-06-23 00:01:00,72.8,68.0,30.10,SSE,148,0.0,0.0,85,0.00,,,0.00,Wunderground v.1.15,2013-06-23 04:01:00,
2013-06-23 00:02:00,72.7,67.9,30.10,SE,139,0.0,0.0,85,0.00,,,0.00,Wunderground v.1.15,2013-06-23 04:02:00,
2013-06-23 00:03:00,72.6,67.8,30.10,SE,136,0.0,0.0,85,0.00,,,0.00,Wunderground v.1.15,2013-06-23 04:03:00,
2013-06-23 00:08:00,72.3,67.2,30.10,SE,128,1.0,1.0,84,0.00,,,0.00,Wunderground v.1.15,2013-06-23 04:08:00,
2013-06-23 00:11:00,72.3,67.2,30.10,SE,134,2.0,2.0,84,0.00,,,0.00,Wunderground v.1.15,2013-06-23 04:11:00,
2013-06-23 00:16:00,72.4,67.3,30.10,SE,143,0.0,1.0,84,0.00,,,0.00,Wunderground v.1.15,2013-06-23 04:16:00,
2013-06-23 00:21:00,72.2,67.4,30.11,SSE,153,0.0,1.0,85,0.00,,,0.00,Wunderground v.1.15,2013-06-23 04:21:00,
2013-06-23 00:26:00,72.1,67.0,30.11,SSE,153,0.0,0.0,84,0.00,,,0.00,Wunderground v.1.15,2013-06-23 04:26:00,
2013-06-23 00:31:00,72.0,66.9,30.10,SSE,153,1.0,1.0,84,0.00,,,0.00,Wunderground v.1.15,2013-06-23 04:31:00,
2013-06-23 00:37:00,72.1,67.0,30.11,SSE,153,0.0,1.0,84,0.00,,,0.00,Wunderground v.1.15,2013-06-23 04:37:00,
2013-06-23 00:42:00,72.0,67.2,30.11,SSE,154,1.0,1.0,85,0.00,,,0.00,Wunderground v.1.15,2013-06-23 04:42:00,
2013-06-23 00:47:00,71.8,66.7,30.11,SSE,152,1.0,1.0,84,0.00,,,0.00,Wunderground v.1.15,2013-06-23 04:47:00,
2013-06-23 00:52:00,71.8,67.0,30.11,SSE,152,1.0,1.0,85,0.00,,,0.00,Wunderground v.1.15,2013-06-23 04:52:00,
2013-06-23 00:57:00,71.5,67.1,30.11,SSE,152,1.0,1.0,86,0.00,,,0.00,Wunderground v.1.15,2013-06-23 04:57:00,
2013-06-23 01:03:00,71.2,67.1,30.11,SSE,148,1.0,1.0,87,0.00,,,0.00,Wunderground v.1.15,2013-06-23 05:03:00,
2013-06-23 01:08:00,70.7,67.0,30.11,South,184,1.0,2.0,88,0.00,,,0.00,Wunderground v.1.15,2013-06-23 05:08:00,
2013-06-23 01:13:00,70.5,67.1,30.10,SSE,160,1.0,2.0,89,0.00,,,0.00,Wunderground v.1.15,2013-06-23 05:13:00,
2013-06-23 01:18:00,70.4,66.7,30.10,SSE,153,1.0,2.0,88,0.00,,,0.00,Wunderground v.1.15,2013-06-23 05:18:00,
2013-06-23 01:23:00,70.4,66.7,30.10,SE,143,0.0,2.0,88,0.00,,,0.00,Wunderground v.1.15,2013-06-23 05:23:00,
2013-06-23 01:29:00,70.6,66.9,30.10,SE,139,2.0,2.0,88,0.00,,,0.00,Wunderground v.1.15,2013-06-23 05:29:00,
2013-06-23 01:34:00,70.7,66.6,30.10,SE,135,1.0,2.0,87,0.00,,,0.00,Wunderground v.1.15,2013-06-23 05:34:00,
2013-06-23 01:39:00,71.0,66.6,30.10,SE,146,1.0,1.0,86,0.00,,,0.00,Wunderground v.1.15,2013-06-23 05:39:00,
2013-06-23 01:44:00,71.0,66.3,30.10,SSE,164,1.0,1.0,85,0.00,,,0.00,Wunderground v.1.15,2013-06-23 05:44:00,
2013-06-23 01:49:00,71.0,66.6,30.10,SSE,164,0.0,1.0,86,0.00,,,0.00,Wunderground v.1.15,2013-06-23 05:49:00,
2013-06-23 01:55:00,71.0,66.6,30.10,SSE,164,0.0,1.0,86,0.00,,,0.00,Wunderground v.1.15,2013-06-23 05:55:00,
2013-06-23 02:00:00,71.0,66.6,30.09,SSE,164,0.0,0.0,86,0.00,,,0.00,Wunderground v.1.15,2013-06-23 06:00:00,
2013-06-23 02:01:00,71.0,66.6,30.09,SSE,164,0.0,0.0,86,0.00,,,0.00,Wunderground v.1.15,2013-06-23 06:01:00,
2013-06-23 02:06:00,71.0,66.6,30.09,SSE,164,0.0,0.0,86,0.00,,,0.00,Wunderground v.1.15,2013-06-23 06:06:00,
2013-06-23 02:11:00,71.1,66.7,30.09,SSW,210,1.0,1.0,86,0.00,,,0.00,Wunderground v.1.15,2013-06-23 06:11:00,
2013-06-23 02:16:00,71.0,66.9,30.08,SSW,210,0.0,1.0,87,0.00,,,0.00,Wunderground v.1.15,2013-06-23 06:16:00,
2013-06-23 02:21:00,70.5,66.8,30.08,SSW,210,0.0,1.0,88,0.00,,,0.00,Wunderground v.1.15,2013-06-23 06:21:00,
2013-06-23 02:26:00,70.1,66.7,30.08,SSW,210,0.0,1.0,89,0.00,,,0.00,Wunderground v.1.15,2013-06-23 06:26:00,
2013-06-23 02:31:00,69.8,66.7,30.08,SE,124,0.0,1.0,90,0.00,,,0.00,Wunderground v.1.15,2013-06-23 06:31:00,
2013-06-23 02:36:00,69.6,66.5,30.08,ESE,108,0.0,2.0,90,0.00,,,0.00,Wunderground v.1.15,2013-06-23 06:36:00,
2013-06-23 02:41:00,69.5,66.4,30.07,ESE,108,0.0,1.0,90,0.00,,,0.00,Wunderground v.1.15,2013-06-23 06:41:00,
2013-06-23 02:46:00,69.6,66.9,30.07,SSE,148,0.0,1.0,91,0.00,,,0.00,Wunderground v.1.15,2013-06-23 06:46:00,
2013-06-23 02:51:00,69.7,66.6,30.07,South,183,0.0,1.0,90,0.00,,,0.00,Wunderground v.1.15,2013-06-23 06:51:00,
2013-06-23 02:56:00,70.3,66.6,30.07,ESE,108,0.0,1.0,88,0.00,,,0.00,Wunderground v.1.15,2013-06-23 06:56:00,
2013-06-23 03:01:00,69.8,66.7,30.07,ESE,110,1.0,1.0,90,0.00,,,0.00,Wunderground v.1.15,2013-06-23 07:01:00,
2013-06-23 03:06:00,69.5,66.4,30.06,SSE,165,1.0,2.0,90,0.00,,,0.00,Wunderground v.1.15,2013-06-23 07:06:00,
2013-06-23 03:11:00,70.1,66.0,30.06,SSE,165,1.0,2.0,87,0.00,,,0.00,Wunderground v.1.15,2013-06-23 07:11:00,
2013-06-23 03:16:00,70.5,66.1,30.06,South,180,2.0,3.0,86,0.00,,,0.00,Wunderground v.1.15,2013-06-23 07:16:00,
2013-06-23 03:21:00,70.8,65.4,30.06,South,191,2.0,4.0,83,0.00,,,0.00,Wunderground v.1.15,2013-06-23 07:21:00,
2013-06-23 03:26:00,71.2,65.1,30.06,SSW,195,1.0,4.0,81,0.00,,,0.00,Wunderground v.1.15,2013-06-23 07:26:00,
2013-06-23 03:31:00,71.4,65.3,30.06,SW,214,1.0,2.0,81,0.00,,,0.00,Wunderground v.1.15,2013-06-23 07:31:00,
2013-06-23 03:36:00,71.2,65.4,30.06,SSW,194,0.0,2.0,82,0.00,,,0.00,Wunderground v.1.15,2013-06-23 07:36:00,
2013-06-23 03:41:00,70.6,66.2,30.05,East,81,0.0,1.0,86,0.00,,,0.00,Wunderground v.1.15,2013-06-23 07:41:00,
2013-06-23 03:46:00,69.8,65.8,30.06,ESE,107,1.0,2.0,87,0.00,,,0.00,Wunderground v.1.15,2013-06-23 07:46:00,
2013-06-23 03:51:00,69.8,65.4,30.06,SE,134,1.0,2.0,86,0.00,,,0.00,Wunderground v.1.15,2013-06-23 07:51:00,
2013-06-23 03:56:00,69.9,65.5,30.06,SE,134,0.0,2.0,86,0.00,,,0.00,Wunderground v.1.15,2013-06-23 07:56:00,
2013-06-23 04:01:00,69.8,65.4,30.06,SE,134,0.0,0.0,86,0.00,,,0.00,Wunderground v.1.15,2013-06-23 08:01:00,
2013-06-23 04:06:00,69.6,65.6,30.06,SE,135,0.0,0.0,87,0.00,,,0.00,Wunderground v.1.15,2013-06-23 08:06:00,
2013-06-23 04:11:00,69.6,65.6,30.06,SE,133,0.0,1.0,87,0.00,,,0.00,Wunderground v.1.15,2013-06-23 08:11:00,
2013-06-23 04:16:00,69.7,65.7,30.06,SE,133,0.0,1.0,87,0.00,,,0.00,Wunderground v.1.15,2013-06-23 08:16:00,
2013-06-23 04:21:00,69.6,65.6,30.06,SE,133,0.0,1.0,87,0.00,,,0.00,Wunderground v.1.15,2013-06-23 08:21:00,
2013-06-23 04:26:00,69.5,65.5,30.07,SE,133,0.0,1.0,87,0.00,,,0.00,Wunderground v.1.15,2013-06-23 08:26:00,
2013-06-23 04:31:00,69.4,66.0,30.07,SE,133,0.0,0.0,89,0.00,,,0.00,Wunderground v.1.15,2013-06-23 08:31:00,
2013-06-23 04:36:00,68.9,65.8,30.07,SE,133,0.0,0.0,90,0.00,,,0.00,Wunderground v.1.15,2013-06-23 08:36:00,
2013-06-23 04:41:00,68.7,65.3,30.07,SE,133,0.0,0.0,89,0.00,,,0.00,Wunderground v.1.15,2013-06-23 08:41:00,
2013-06-23 04:46:00,68.6,65.5,30.06,SE,133,0.0,0.0,90,0.00,,,0.00,Wunderground v.1.15,2013-06-23 08:46:00,
2013-06-23 04:51:00,68.4,66.0,30.06,SE,133,0.0,1.0,92,0.00,,,0.00,Wunderground v.1.15,2013-06-23 08:51:00,
2013-06-23 04:56:00,68.1,65.4,30.06,SE,133,0.0,1.0,91,0.00,,,0.00,Wunderground v.1.15,2013-06-23 08:56:00,
2013-06-23 05:01:00,68.0,65.9,30.06,SE,133,0.0,1.0,93,0.00,,,0.00,Wunderground v.1.15,2013-06-23 09:01:00,
2013-06-23 05:06:00,67.8,65.7,30.07,SE,133,0.0,1.0,93,0.00,,,0.00,Wunderground v.1.15,2013-06-23 09:06:00,
2013-06-23 05:11:00,67.5,65.4,30.07,SE,133,0.0,0.0,93,0.00,,,0.00,Wunderground v.1.15,2013-06-23 09:11:00,
2013-06-23 05:16:00,67.2,65.4,30.07,SE,133,0.0,1.0,94,0.00,,,0.00,Wunderground v.1.15,2013-06-23 09:16:00,
2013-06-23 05:21:00,67.0,65.5,30.07,SE,134,0.0,0.0,95,0.00,,,0.00,Wunderground v.1.15,2013-06-23 09:21:00,
2013-06-23 05:26:00,66.9,65.4,30.08,SE,133,0.0,0.0,95,0.00,,,0.00,Wunderground v.1.15,2013-06-23 09:26:00,
2013-06-23 05:31:00,66.7,65.2,30.08,SE,133,0.0,0.0,95,0.00,,,0.00,Wunderground v.1.15,2013-06-23 09:31:00,
2013-06-23 05:36:00,66.6,65.4,30.08,SSW,210,0.0,0.0,96,0.00,,,0.00,Wunderground v.1.15,2013-06-23 09:36:00,
2013-06-23 05:41:00,66.5,65.3,30.09,WSW,245,0.0,1.0,96,0.00,,,0.00,Wunderground v.1.15,2013-06-23 09:41:00,
2013-06-23 05:46:00,66.5,65.3,30.09,WSW,245,0.0,1.0,96,0.00,,,0.00,Wunderground v.1.15,2013-06-23 09:46:00,
2013-06-23 05:51:00,66.6,65.4,30.09,North,351,1.0,1.0,96,0.00,,,0.00,Wunderground v.1.15,2013-06-23 09:51:00,
2013-06-23 05:56:00,66.6,65.7,30.09,North,349,0.0,1.0,97,0.00,,,0.00,Wunderground v.1.15,2013-06-23 09:56:00,
2013-06-23 06:01:00,66.6,65.7,30.09,North,354,0.0,1.0,97,0.00,,,0.00,Wunderground v.1.15,2013-06-23 10:01:00,
2013-06-23 06:06:00,66.6,65.7,30.10,North,355,0.0,1.0,97,0.00,,,0.00,Wunderground v.1.15,2013-06-23 10:06:00,
2013-06-23 06:11:00,66.6,65.7,30.10,North,354,0.0,1.0,97,0.00,,,0.00,Wunderground v.1.15,2013-06-23 10:11:00,
2013-06-23 06:16:00,66.6,65.7,30.10,North,355,0.0,1.0,97,0.00,,,0.00,Wunderground v.1.15,2013-06-23 10:16:00,
2013-06-23 06:21:00,66.3,65.4,30.10,North,355,0.0,1.0,97,0.00,,,0.00,Wunderground v.1.15,2013-06-23 10:21:00,
2013-06-23 06:26:00,66.2,65.3,30.11,SE,135,0.0,1.0,97,0.00,,,0.00,Wunderground v.1.15,2013-06-23 10:26:00,
2013-06-23 06:31:00,66.0,65.1,30.11,SE,135,0.0,1.0,97,0.00,,,0.00,Wunderground v.1.15,2013-06-23 10:31:00,
2013-06-23 06:36:00,66.0,65.1,30.11,SE,135,0.0,1.0,97,0.00,,,0.00,Wunderground v.1.15,2013-06-23 10:36:00,
2013-06-23 06:41:00,66.0,65.1,30.11,SE,135,0.0,0.0,97,0.00,,,0.00,Wunderground v.1.15,2013-06-23 10:41:00,
2013-06-23 06:46:00,66.0,65.1,30.11,SE,135,0.0,0.0,97,0.00,,,0.00,Wunderground v.1.15,2013-06-23 10:46:00,
2013-06-23 06:51:00,65.8,64.9,30.11,SE,135,0.0,0.0,97,0.00,,,0.00,Wunderground v.1.15,2013-06-23 10:51:00,
2013-06-23 06:56:00,65.8,64.9,30.12,SE,135,0.0,0.0,97,0.00,,,0.00,Wunderground v.1.15,2013-06-23 10:56:00,
2013-06-23 07:01:00,65.8,64.9,30.11,SE,135,0.0,0.0,97,0.00,,,0.00,Wunderground v.1.15,2013-06-23 11:01:00,
2013-06-23 07:06:00,65.9,65.0,30.12,SE,135,0.0,0.0,97,0.00,,,0.00,Wunderground v.1.15,2013-06-23 11:06:00,
2013-06-23 07:11:00,65.9,64.7,30.12,SE,135,0.0,1.0,96,0.00,,,0.00,Wunderground v.1.15,2013-06-23 11:11:00,
2013-06-23 07:16:00,66.0,64.8,30.13,SE,135,0.0,1.0,96,0.00,,,0.00,Wunderground v.1.15,2013-06-23 11:16:00,
2013-06-23 07:21:00,66.3,65.4,30.13,SE,135,0.0,1.0,97,0.00,,,0.00,Wunderground v.1.15,2013-06-23 11:21:00,
2013-06-23 07:26:00,66.4,65.5,30.13,SE,135,0.0,1.0,97,0.00,,,0.00,Wunderground v.1.15,2013-06-23 11:26:00,
2013-06-23 07:31:00,66.5,65.6,30.14,SE,135,0.0,1.0,97,0.00,,,0.00,Wunderground v.1.15,2013-06-23 11:31:00,
2013-06-23 07:36:00,66.6,65.4,30.14,SE,135,0.0,1.0,96,0.00,,,0.00,Wunderground v.1.15,2013-06-23 11:36:00,
2013-06-23 07:41:00,66.8,65.6,30.14,SE,134,0.0,1.0,96,0.00,,,0.00,Wunderground v.1.15,2013-06-23 11:41:00,
2013-06-23 07:46:00,67.1,65.6,30.14,SE,134,0.0,1.0,95,0.00,,,0.00,Wunderground v.1.15,2013-06-23 11:46:00,
2013-06-23 07:51:00,67.4,65.9,30.14,NNE,19,0.0,2.0,95,0.00,,,0.00,Wunderground v.1.15,2013-06-23 11:51:00,
2013-06-23 07:56:00,67.6,66.1,30.14,NE,44,0.0,2.0,95,0.00,,,0.00,Wunderground v.1.15,2013-06-23 11:56:00,
2013-06-23 08:01:00,67.9,66.4,30.15,NE,44,0.0,1.0,95,0.00,,,0.00,Wunderground v.1.15,2013-06-23 12:01:00,
2013-06-23 08:06:00,68.0,66.2,30.15,North,356,1.0,2.0,94,0.00,,,0.00,Wunderground v.1.15,2013-06-23 12:06:00,
2013-06-23 08:11:00,68.0,66.2,30.15,North,359,1.0,2.0,94,0.00,,,0.00,Wunderground v.1.15,2013-06-23 12:11:00,
2013-06-23 08:16:00,68.1,66.3,30.15,North,8,1.0,3.0,94,0.00,,,0.00,Wunderground v.1.15,2013-06-23 12:16:00,
2013-06-23 08:21:00,68.2,66.4,30.15,East,91,0.0,3.0,94,0.00,,,0.00,Wunderground v.1.15,2013-06-23 12:21:00,
2013-06-23 08:26:00,68.8,66.7,30.15,ESE,105,0.0,3.0,93,0.00,,,0.00,Wunderground v.1.15,2013-06-23 12:26:00,
2013-06-23 08:31:00,69.4,67.0,30.15,ENE,74,0.0,1.0,92,0.00,,,0.00,Wunderground v.1.15,2013-06-23 12:31:00,
2013-06-23 08:36:00,69.9,67.2,30.16,ENE,74,0.0,1.0,91,0.00,,,0.00,Wunderground v.1.15,2013-06-23 12:36:00,
2013-06-23 08:41:00,70.5,67.4,30.16,ENE,74,0.0,1.0,90,0.00,,,0.00,Wunderground v.1.15,2013-06-23 12:41:00,
2013-06-23 08:46:00,71.2,67.5,30.16,East,82,0.0,1.0,88,0.00,,,0.00,Wunderground v.1.15,2013-06-23 12:46:00,
2013-06-23 08:51:00,71.8,67.0,30.16,East,81,0.0,1.0,85,0.00,,,0.00,Wunderground v.1.15,2013-06-23 12:51:00,
2013-06-23 08:56:00,72.4,66.9,30.15,SSE,157,0.0,1.0,83,0.00,,,0.00,Wunderground v.1.15,2013-06-23 12:56:00,
2013-06-23 09:01:00,73.7,67.5,30.16,SSE,157,0.0,0.0,81,0.00,,,0.00,Wunderground v.1.15,2013-06-23 13:01:00,
2013-06-23 09:06:00,73.3,66.4,30.16,SW,235,1.0,1.0,79,0.00,,,0.00,Wunderground v.1.15,2013-06-23 13:06:00,
2013-06-23 09:11:00,72.9,66.0,30.16,WSW,245,0.0,2.0,79,0.00,,,0.00,Wunderground v.1.15,2013-06-23 13:11:00,
2013-06-23 09:16:00,72.8,65.9,30.16,WNW,300,0.0,2.0,79,0.00,,,0.00,Wunderground v.1.15,2013-06-23 13:16:00,
2013-06-23 09:21:00,72.9,66.4,30.16,North,4,0.0,2.0,80,0.00,,,0.00,Wunderground v.1.15,2013-06-23 13:21:00,
2013-06-23 09:26:00,73.8,66.5,30.15,North,351,0.0,2.0,78,0.00,,,0.00,Wunderground v.1.15,2013-06-23 13:26:00,
2013-06-23 09:31:00,74.4,66.3,30.15,NNW,327,0.0,2.0,76,0.00,,,0.00,Wunderground v.1.15,2013-06-23 13:31:00,
2013-06-23 09:36:00,75.2,66.3,30.15,ENE,70,0.0,1.0,74,0.00,,,0.00,Wunderground v.1.15,2013-06-23 13:36:00,
2013-06-23 09:41:00,75.8,66.1,30.15,East,84,0.0,2.0,72,0.00,,,0.00,Wunderground v.1.15,2013-06-23 13:41:00,
2013-06-23 09:46:00,76.3,65.8,30.15,East,101,0.0,0.0,70,0.00,,,0.00,Wunderground v.1.15,2013-06-23 13:46:00,
2013-06-23 09:51:00,77.2,66.2,30.16,East,101,0.0,1.0,69,0.00,,,0.00,Wunderground v.1.15,2013-06-23 13:51:00,
2013-06-23 09:56:00,77.6,66.2,30.16,ESE,118,0.0,0.0,68,0.00,,,0.00,Wunderground v.1.15,2013-06-23 13:56:00,
2013-06-23 10:02:00,77.3,65.9,30.16,ESE,116,0.0,3.0,68,0.00,,,0.00,Wunderground v.1.15,2013-06-23 14:02:00,
2013-06-23 10:07:00,77.4,66.0,30.15,ENE,73,0.0,2.0,68,0.00,,,0.00,Wunderground v.1.15,2013-06-23 14:07:00,
2013-06-23 10:12:00,77.3,65.9,30.15,East,90,0.0,2.0,68,0.00,,,0.00,Wunderground v.1.15,2013-06-23 14:12:00,
2013-06-23 10:17:00,77.9,65.6,30.15,East,81,1.0,2.0,66,0.00,,,0.00,Wunderground v.1.15,2013-06-23 14:17:00,
2013-06-23 10:22:00,78.2,66.3,30.16,SE,129,0.0,2.0,67,0.00,,,0.00,Wunderground v.1.15,2013-06-23 14:22:00,
2013-06-23 10:27:00,78.9,66.1,30.16,SSE,165,0.0,0.0,65,0.00,,,0.00,Wunderground v.1.15,2013-06-23 14:27:00,
2013-06-23 10:32:00,79.4,66.6,30.16,SE,131,0.0,0.0,65,0.00,,,0.00,Wunderground v.1.15,2013-06-23 14:32:00,
2013-06-23 10:37:00,79.7,66.4,30.16,North,349,0.0,1.0,64,0.00,,,0.00,Wunderground v.1.15,2013-06-23 14:37:00,
2013-06-23 10:42:00,79.6,66.3,30.16,North,350,0.0,2.0,64,0.00,,,0.00,Wunderground v.1.15,2013-06-23 14:42:00,
2013-06-23 10:47:00,79.6,66.3,30.16,ENE,62,0.0,2.0,64,0.00,,,0.00,Wunderground v.1.15,2013-06-23 14:47:00,
2013-06-23 10:52:00,79.5,66.3,30.15,East,91,0.0,2.0,64,0.00,,,0.00,Wunderground v.1.15,2013-06-23 14:52:00,
2013-06-23 10:57:00,79.3,66.5,30.16,SE,131,2.0,4.0,65,0.00,,,0.00,Wunderground v.1.15,2013-06-23 14:57:00,
2013-06-23 11:03:00,79.0,66.7,30.16,SE,142,1.0,4.0,66,0.00,,,0.00,Wunderground v.1.15,2013-06-23 15:03:00,
2013-06-23 11:08:00,79.0,66.2,30.15,ESE,110,2.0,4.0,65,0.00,,,0.00,Wunderground v.1.15,2013-06-23 15:08:00,
2013-06-23 11:13:00,78.5,66.2,30.15,East,101,2.0,5.0,66,0.00,,,0.00,Wunderground v.1.15,2013-06-23 15:13:00,
2013-06-23 11:18:00,78.7,65.9,30.16,SSE,153,0.0,2.0,65,0.00,,,0.00,Wunderground v.1.15,2013-06-23 15:18:00,
2013-06-23 11:23:00,79.2,66.0,30.16,ESE,110,2.0,5.0,64,0.00,,,0.00,Wunderground v.1.15,2013-06-23 15:23:00,
2013-06-23 11:28:00,79.5,66.7,30.15,ESE,123,1.0,4.0,65,0.00,,,0.00,Wunderground v.1.15,2013-06-23 15:28:00,
2013-06-23 11:33:00,79.5,66.7,30.15,SE,124,1.0,4.0,65,0.00,,,0.00,Wunderground v.1.15,2013-06-23 15:33:00,
2013-06-23 11:38:00,80.5,66.7,30.15,East,84,1.0,1.0,63,0.00,,,0.00,Wunderground v.1.15,2013-06-23 15:38:00,
2013-06-23 11:43:00,81.3,66.6,30.15,WNW,293,0.0,2.0,61,0.00,,,0.00,Wunderground v.1.15,2013-06-23 15:43:00,
2013-06-23 11:48:00,82.2,66.9,30.15,East,79,0.0,2.0,60,0.00,,,0.00,Wunderground v.1.15,2013-06-23 15:48:00,
2013-06-23 11:53:00,83.0,67.2,30.15,ESE,116,0.0,3.0,59,0.00,,,0.00,Wunderground v.1.15,2013-06-23 15:53:00,
2013-06-23 11:59:00,82.7,66.9,30.15,SW,229,4.0,5.0,59,0.00,,,0.00,Wunderground v.1.15,2013-06-23 15:59:00,
2013-06-23 12:04:00,82.7,67.4,30.14,NW,320,0.0,5.0,60,0.00,,,0.00,Wunderground v.1.15,2013-06-23 16:04:00,
2013-06-23 12:09:00,82.8,67.5,30.14,East,83,3.0,4.0,60,0.00,,,0.00,Wunderground v.1.15,2013-06-23 16:09:00,
2013-06-23 12:14:00,81.7,67.4,30.14,ENE,72,1.0,4.0,62,0.00,,,0.00,Wunderground v.1.15,2013-06-23 16:14:00,
2013-06-23 12:19:00,81.6,67.3,30.14,SSW,196,2.0,4.0,62,0.00,,,0.00,Wunderground v.1.15,2013-06-23 16:19:00,
2013-06-23 12:24:00,81.8,67.5,30.14,SSW,203,2.0,4.0,62,0.00,,,0.00,Wunderground v.1.15,2013-06-23 16:24:00,
2013-06-23 12:29:00,81.7,67.4,30.13,ESE,123,2.0,3.0,62,0.00,,,0.00,Wunderground v.1.15,2013-06-23 16:29:00,
2013-06-23 12:35:00,81.8,67.5,30.13,ENE,58,2.0,4.0,62,0.00,,,0.00,Wunderground v.1.15,2013-06-23 16:35:00,
2013-06-23 12:40:00,81.8,68.0,30.13,SE,134,0.0,3.0,63,0.00,,,0.00,Wunderground v.1.15,2013-06-23 16:40:00,
2013-06-23 12:45:00,81.6,67.3,30.13,South,191,2.0,4.0,62,0.00,,,0.00,Wunderground v.1.15,2013-06-23 16:45:00,
2013-06-23 12:50:00,81.8,67.5,30.13,East,99,3.0,5.0,62,0.00,,,0.00,Wunderground v.1.15,2013-06-23 16:50:00,
2013-06-23 12:55:00,82.2,67.9,30.13,East,98,3.0,5.0,62,0.00,,,0.00,Wunderground v.1.15,2013-06-23 16:55:00,
2013-06-23 12:57:00,82.1,67.3,30.13,East,96,2.0,4.0,61,0.00,,,0.00,Wunderground v.1.15,2013-06-23 16:57:00,
2013-06-23 12:58:00,82.0,67.2,30.13,ESE,108,2.0,4.0,61,0.00,,,0.00,Wunderground v.1.15,2013-06-23 16:58:00,
2013-06-23 13:03:00,81.1,66.8,30.12,ESE,121,3.0,5.0,62,0.00,,,0.00,Wunderground v.1.15,2013-06-23 17:03:00,
2013-06-23 13:08:00,81.6,67.3,30.12,North,356,0.0,3.0,62,0.00,,,0.00,Wunderground v.1.15,2013-06-23 17:08:00,
2013-06-23 13:13:00,82.6,67.3,30.11,ESE,105,5.0,5.0,60,0.00,,,0.00,Wunderground v.1.15,2013-06-23 17:13:00,
2013-06-23 13:18:00,82.1,66.8,30.11,ESE,108,5.0,6.0,60,0.00,,,0.00,Wunderground v.1.15,2013-06-23 17:18:00,
2013-06-23 13:23:00,81.7,66.5,30.11,SE,132,3.0,8.0,60,0.00,,,0.00,Wunderground v.1.15,2013-06-23 17:23:00,
2013-06-23 13:28:00,81.7,67.4,30.11,SE,127,4.0,6.0,62,0.00,,,0.00,Wunderground v.1.15,2013-06-23 17:28:00,
2013-06-23 13:33:00,82.0,66.7,30.11,East,96,4.0,8.0,60,0.00,,,0.00,Wunderground v.1.15,2013-06-23 17:33:00,
2013-06-23 13:38:00,82.1,67.8,30.11,ENE,63,1.0,5.0,62,0.00,,,0.00,Wunderground v.1.15,2013-06-23 17:38:00,
2013-06-23 13:43:00,82.4,67.6,30.10,ESE,122,3.0,8.0,61,0.00,,,0.00,Wunderground v.1.15,2013-06-23 17:43:00,
2013-06-23 13:48:00,82.7,67.9,30.10,East,99,1.0,3.0,61,0.00,,,0.00,Wunderground v.1.15,2013-06-23 17:48:00,
2013-06-23 13:53:00,82.5,67.2,30.10,SSE,148,5.0,7.0,60,0.00,,,0.00,Wunderground v.1.15,2013-06-23 17:53:00,
2013-06-23 13:58:00,82.8,67.5,30.09,SW,233,2.0,3.0,60,0.00,,,0.00,Wunderground v.1.15,2013-06-23 17:58:00,
2013-06-23 14:03:00,83.2,67.4,30.09,SSE,165,0.0,6.0,59,0.00,,,0.00,Wunderground v.1.15,2013-06-23 18:03:00,
2013-06-23 14:08:00,84.0,68.1,30.09,SSE,152,3.0,6.0,59,0.00,,,0.00,Wunderground v.1.15,2013-06-23 18:08:00,
2013-06-23 14:13:00,83.4,67.1,30.09,SSE,165,5.0,6.0,58,0.00,,,0.00,Wunderground v.1.15,2013-06-23 18:13:00,
2013-06-23 14:18:00,83.3,65.4,30.09,ESE,117,6.0,9.0,55,0.00,,,0.00,Wunderground v.1.15,2013-06-23 18:18:00,
2013-06-23 14:23:00,83.0,65.7,30.09,ESE,116,2.0,9.0,56,0.00,,,0.00,Wunderground v.1.15,2013-06-23 18:23:00,
2013-06-23 14:28:00,83.2,66.4,30.08,SSE,157,1.0,5.0,57,0.00,,,0.00,Wunderground v.1.15,2013-06-23 18:28:00,
2013-06-23 14:33:00,83.8,66.4,30.08,SSW,212,4.0,6.0,56,0.00,,,0.00,Wunderground v.1.15,2013-06-23 18:33:00,
2013-06-23 14:38:00,83.9,66.5,30.08,SSE,149,2.0,3.0,56,0.00,,,0.00,Wunderground v.1.15,2013-06-23 18:38:00,
2013-06-23 14:43:00,83.6,65.2,30.07,SSE,168,5.0,9.0,54,0.00,,,0.00,Wunderground v.1.15,2013-06-23 18:43:00,
2013-06-23 14:48:00,83.7,65.3,30.07,SSE,164,3.0,6.0,54,0.00,,,0.00,Wunderground v.1.15,2013-06-23 18:48:00,
2013-06-23 14:53:00,84.0,66.1,30.07,SE,146,4.0,8.0,55,0.00,,,0.00,Wunderground v.1.15,2013-06-23 18:53:00,
2013-06-23 14:58:00,83.7,65.3,30.07,SE,131,5.0,9.0,54,0.00,,,0.00,Wunderground v.1.15,2013-06-23 18:58:00,
2013-06-23 15:03:00,83.9,66.0,30.07,South,184,4.0,9.0,55,0.00,,,0.00,Wunderground v.1.15,2013-06-23 19:03:00,
2013-06-23 15:08:00,84.3,66.4,30.07,SSW,195,1.0,5.0,55,0.00,,,0.00,Wunderground v.1.15,2013-06-23 19:08:00,
2013-06-23 15:13:00,84.3,66.4,30.07,SSW,205,4.0,5.0,55,0.00,,,0.00,Wunderground v.1.15,2013-06-23 19:13:00,
2013-06-23 15:18:00,83.8,65.4,30.07,SE,134,4.0,6.0,54,0.00,,,0.00,Wunderground v.1.15,2013-06-23 19:18:00,
2013-06-23 15:23:00,83.7,66.3,30.07,SE,143,4.0,6.0,56,0.00,,,0.00,Wunderground v.1.15,2013-06-23 19:23:00,
2013-06-23 15:28:00,83.8,66.4,30.07,ESE,122,6.0,6.0,56,0.00,,,0.00,Wunderground v.1.15,2013-06-23 19:28:00,
2013-06-23 15:33:00,83.9,66.5,30.06,South,190,5.0,9.0,56,0.00,,,0.00,Wunderground v.1.15,2013-06-23 19:33:00,
2013-06-23 15:38:00,83.9,66.5,30.06,SSW,203,3.0,6.0,56,0.00,,,0.00,Wunderground v.1.15,2013-06-23 19:38:00,
2013-06-23 15:43:00,84.3,66.9,30.06,SSW,212,3.0,7.0,56,0.00,,,0.00,Wunderground v.1.15,2013-06-23 19:43:00,
2013-06-23 15:48:00,84.2,67.3,30.06,South,190,1.0,4.0,57,0.00,,,0.00,Wunderground v.1.15,2013-06-23 19:48:00,
2013-06-23 15:53:00,84.1,67.7,30.06,South,184,3.0,5.0,58,0.00,,,0.00,Wunderground v.1.15,2013-06-23 19:53:00,
2013-06-23 15:58:00,84.2,67.8,30.06,SW,224,5.0,6.0,58,0.00,,,0.00,Wunderground v.1.15,2013-06-23 19:58:00,
2013-06-23 16:03:00,84.1,68.2,30.06,SSW,195,3.0,6.0,59,0.00,,,0.00,Wunderground v.1.15,2013-06-23 20:03:00,
2013-06-23 16:08:00,83.8,67.9,30.06,WSW,240,3.0,5.0,59,0.00,,,0.00,Wunderground v.1.15,2013-06-23 20:08:00,
2013-06-23 16:13:00,83.6,66.8,30.06,SW,220,4.0,6.0,57,0.00,,,0.00,Wunderground v.1.15,2013-06-23 20:13:00,
2013-06-23 16:18:00,83.7,67.8,30.06,WSW,253,2.0,5.0,59,0.00,,,0.00,Wunderground v.1.15,2013-06-23 20:18:00,
2013-06-23 16:23:00,83.9,67.5,30.06,West,269,1.0,6.0,58,0.00,,,0.00,Wunderground v.1.15,2013-06-23 20:23:00,
2013-06-23 16:28:00,83.9,67.5,30.06,WSW,248,1.0,5.0,58,0.00,,,0.00,Wunderground v.1.15,2013-06-23 20:28:00,
2013-06-23 16:33:00,84.3,66.9,30.06,WSW,255,5.0,5.0,56,0.00,,,0.00,Wunderground v.1.15,2013-06-23 20:33:00,
2013-06-23 16:38:00,84.4,67.5,30.06,WSW,240,3.0,5.0,57,0.00,,,0.00,Wunderground v.1.15,2013-06-23 20:38:00,
2013-06-23 16:43:00,84.8,68.9,30.06,East,90,2.0,5.0,59,0.00,,,0.00,Wunderground v.1.15,2013-06-23 20:43:00,
2013-06-23 16:48:00,83.0,69.1,30.06,NE,39,0.0,6.0,63,0.00,,,0.00,Wunderground v.1.15,2013-06-23 20:48:00,
2013-06-23 16:53:00,82.1,69.2,30.06,East,99,2.0,6.0,65,0.00,,,0.00,Wunderground v.1.15,2013-06-23 20:53:00,
2013-06-23 16:58:00,81.4,68.9,30.06,NE,49,1.0,5.0,66,0.00,,,0.00,Wunderground v.1.15,2013-06-23 20:58:00,
2013-06-23 17:03:00,81.8,68.4,30.06,NE,56,1.0,5.0,64,0.00,,,0.00,Wunderground v.1.15,2013-06-23 21:03:00,
2013-06-23 17:08:00,82.1,68.7,30.06,NNE,21,0.0,3.0,64,0.00,,,0.00,Wunderground v.1.15,2013-06-23 21:08:00,
2013-06-23 17:13:00,82.2,68.3,30.06,NNE,18,1.0,3.0,63,0.00,,,0.00,Wunderground v.1.15,2013-06-23 21:13:00,
2013-06-23 17:18:00,82.0,68.6,30.06,ENE,72,1.0,3.0,64,0.00,,,0.00,Wunderground v.1.15,2013-06-23 21:18:00,
2013-06-23 17:23:00,81.8,68.4,30.06,NNE,19,3.0,5.0,64,0.00,,,0.00,Wunderground v.1.15,2013-06-23 21:23:00,
2013-06-23 17:28:00,81.7,69.2,30.06,ENE,66,5.0,5.0,66,0.00,,,0.00,Wunderground v.1.15,2013-06-23 21:28:00,
2013-06-23 17:33:00,81.7,69.7,30.06,North,352,1.0,5.0,67,0.00,,,0.00,Wunderground v.1.15,2013-06-23 21:33:00,
2013-06-23 17:38:00,81.7,69.2,30.06,East,86,2.0,5.0,66,0.00,,,0.00,Wunderground v.1.15,2013-06-23 21:38:00,
2013-06-23 17:43:00,81.2,68.8,30.06,East,91,5.0,9.0,66,0.00,,,0.00,Wunderground v.1.15,2013-06-23 21:43:00,
2013-06-23 17:48:00,80.6,69.1,30.06,East,92,2.0,5.0,68,0.00,,,0.00,Wunderground v.1.15,2013-06-23 21:48:00,
2013-06-23 17:53:00,80.3,68.3,30.06,ESE,103,6.0,6.0,67,0.00,,,0.00,Wunderground v.1.15,2013-06-23 21:53:00,
2013-06-23 17:58:00,80.0,68.9,30.05,East,94,4.0,6.0,69,0.00,,,0.00,Wunderground v.1.15,2013-06-23 21:58:00,
2013-06-23 18:03:00,79.7,69.5,30.05,SE,134,2.0,6.0,71,0.00,,,0.01,Wunderground v.1.15,2013-06-23 22:03:00,
2013-06-23 18:08:00,79.4,70.0,30.05,East,98,0.0,3.0,73,0.00,,,0.01,Wunderground v.1.15,2013-06-23 22:08:00,
2013-06-23 18:13:00,79.8,70.4,30.05,North,4,0.0,3.0,73,0.00,,,0.01,Wunderground v.1.15,2013-06-23 22:13:00,
2013-06-23 18:18:00,80.7,70.8,30.05,North,10,0.0,0.0,72,0.00,,,0.01,Wunderground v.1.15,2013-06-23 22:18:00,
2013-06-23 18:23:00,80.7,70.8,30.05,East,79,0.0,3.0,72,0.00,,,0.01,Wunderground v.1.15,2013-06-23 22:23:00,
2013-06-23 18:28:00,80.6,70.3,30.05,East,91,3.0,5.0,71,0.00,,,0.01,Wunderground v.1.15,2013-06-23 22:28:00,
2013-06-23 18:33:00,79.6,69.0,30.04,NNE,31,2.0,6.0,70,0.00,,,0.01,Wunderground v.1.15,2013-06-23 22:33:00,
2013-06-23 18:38:00,79.6,69.4,30.05,NE,56,2.0,3.0,71,0.00,,,0.01,Wunderground v.1.15,2013-06-23 22:38:00,
2013-06-23 18:43:00,79.2,69.4,30.05,NE,42,5.0,7.0,72,0.00,,,0.01,Wunderground v.1.15,2013-06-23 22:43:00,
2013-06-23 18:48:00,79.0,69.6,30.05,NE,38,1.0,5.0,73,0.00,,,0.01,Wunderground v.1.15,2013-06-23 22:48:00,
2013-06-23 18:53:00,78.9,69.5,30.05,ENE,77,5.0,7.0,73,0.00,,,0.01,Wunderground v.1.15,2013-06-23 22:53:00,
2013-06-23 18:58:00,78.6,69.2,30.05,NE,48,1.0,4.0,73,0.00,,,0.01,Wunderground v.1.15,2013-06-23 22:58:00,
2013-06-23 19:03:00,78.6,69.6,30.05,NNE,29,0.0,4.0,74,0.00,,,0.01,Wunderground v.1.15,2013-06-23 23:03:00,
2013-06-23 19:08:00,78.7,69.7,30.05,ENE,68,1.0,1.0,74,0.00,,,0.01,Wunderground v.1.15,2013-06-23 23:08:00,
2013-06-23 19:13:00,78.8,69.8,30.05,NNE,33,2.0,3.0,74,0.00,,,0.01,Wunderground v.1.15,2013-06-23 23:13:00,
2013-06-23 19:18:00,78.8,69.8,30.05,ENE,63,0.0,1.0,74,0.00,,,0.01,Wunderground v.1.15,2013-06-23 23:18:00,
2013-06-23 19:23:00,79.0,70.0,30.05,ENE,73,0.0,2.0,74,0.00,,,0.01,Wunderground v.1.15,2013-06-23 23:23:00,
2013-06-23 19:28:00,79.0,70.0,30.05,North,360,0.0,1.0,74,0.00,,,0.01,Wunderground v.1.15,2013-06-23 23:28:00,
2013-06-23 19:33:00,79.2,70.6,30.05,NE,38,0.0,2.0,75,0.00,,,0.01,Wunderground v.1.15,2013-06-23 23:33:00,
2013-06-23 19:38:00,79.4,70.4,30.05,ESE,111,0.0,2.0,74,0.00,,,0.01,Wunderground v.1.15,2013-06-23 23:38:00,
2013-06-23 19:43:00,78.9,70.3,30.06,East,94,2.0,4.0,75,0.00,,,0.01,Wunderground v.1.15,2013-06-23 23:43:00,
2013-06-23 19:48:00,78.3,68.9,30.07,SE,137,12.0,16.0,73,0.00,,,0.01,Wunderground v.1.15,2013-06-23 23:48:00,
2013-06-23 19:53:00,76.1,66.8,30.06,SE,140,10.0,17.0,73,0.00,,,0.01,Wunderground v.1.15,2013-06-23 23:53:00,
2013-06-23 19:58:00,75.2,65.9,30.06,ESE,123,9.0,16.0,73,0.00,,,0.01,Wunderground v.1.15,2013-06-23 23:58:00,
2013-06-23 20:03:00,74.9,66.4,30.05,SE,144,10.0,16.0,75,0.00,,,0.02,Wunderground v.1.15,2013-06-24 00:03:00,
2013-06-23 20:08:00,76.2,66.1,30.05,ESE,122,7.0,11.0,71,0.17,,,0.03,Wunderground v.1.15,2013-06-24 00:08:00,
2013-06-23 20:13:00,76.1,63.9,30.06,SE,125,1.0,11.0,66,0.07,,,0.03,Wunderground v.1.15,2013-06-24 00:13:00,
2013-06-23 20:18:00,76.2,63.1,30.05,SSW,193,0.0,5.0,64,0.04,,,0.03,Wunderground v.1.15,2013-06-24 00:18:00,
2013-06-23 20:23:00,76.4,64.6,30.06,SSE,151,1.0,5.0,67,0.00,,,0.03,Wunderground v.1.15,2013-06-24 00:23:00,
2013-06-23 20:28:00,75.7,64.8,30.05,SE,144,0.0,2.0,69,0.00,,,0.03,Wunderground v.1.15,2013-06-24 00:28:00,
2013-06-23 20:33:00,74.9,64.9,30.05,SSE,153,1.0,2.0,71,0.00,,,0.03,Wunderground v.1.15,2013-06-24 00:33:00,
2013-06-23 20:38:00,74.3,65.5,30.05,SSE,165,1.0,2.0,74,0.00,,,0.03,Wunderground v.1.15,2013-06-24 00:38:00,
2013-06-23 20:43:00,73.9,66.2,30.05,SW,214,0.0,2.0,77,0.00,,,0.03,Wunderground v.1.15,2013-06-24 00:43:00,
2013-06-23 20:48:00,73.6,67.0,30.05,SSW,192,0.0,0.0,80,0.00,,,0.03,Wunderground v.1.15,2013-06-24 00:48:00,
2013-06-23 20:53:00,73.4,67.9,30.06,SSW,192,0.0,0.0,83,0.00,,,0.03,Wunderground v.1.15,2013-06-24 00:53:00,
2013-06-23 20:58:00,73.1,67.3,30.06,SSW,192,0.0,0.0,82,0.00,,,0.03,Wunderground v.1.15,2013-06-24 00:58:00,
2013-06-23 21:03:00,73.0,65.7,30.06,SSW,192,0.0,0.0,78,0.00,,,0.03,Wunderground v.1.15,2013-06-24 01:03:00,
2013-06-23 21:08:00,73.0,66.1,30.06,SSW,192,0.0,0.0,79,0.00,,,0.03,Wunderground v.1.15,2013-06-24 01:08:00,
2013-06-23 21:13:00,73.0,67.9,30.06,East,94,0.0,1.0,84,0.00,,,0.03,Wunderground v.1.15,2013-06-24 01:13:00,
2013-06-23 21:18:00,72.7,67.6,30.06,WSW,250,0.0,1.0,84,0.00,,,0.03,Wunderground v.1.15,2013-06-24 01:18:00,
2013-06-23 21:23:00,72.6,66.1,30.06,WSW,250,0.0,1.0,80,0.00,,,0.03,Wunderground v.1.15,2013-06-24 01:23:00,
2013-06-23 21:28:00,72.6,65.7,30.06,WSW,250,0.0,0.0,79,0.00,,,0.03,Wunderground v.1.15,2013-06-24 01:28:00,
2013-06-23 21:33:00,72.6,65.7,30.07,East,84,1.0,1.0,79,0.00,,,0.03,Wunderground v.1.15,2013-06-24 01:33:00,
2013-06-23 21:38:00,72.7,66.2,30.07,East,94,0.0,1.0,80,0.00,,,0.03,Wunderground v.1.15,2013-06-24 01:38:00,
2013-06-23 21:43:00,72.6,67.1,30.07,East,94,0.0,1.0,83,0.00,,,0.03,Wunderground v.1.15,2013-06-24 01:43:00,
2013-06-23 21:48:00,72.4,68.3,30.08,East,94,0.0,0.0,87,0.00,,,0.03,Wunderground v.1.15,2013-06-24 01:48:00,
2013-06-23 21:53:00,72.1,68.3,30.08,East,94,0.0,0.0,88,0.00,,,0.03,Wunderground v.1.15,2013-06-24 01:53:00,
2013-06-23 21:58:00,71.8,68.4,30.08,East,94,0.0,0.0,89,0.00,,,0.03,Wunderground v.1.15,2013-06-24 01:58:00,
2013-06-23 22:03:00,71.6,68.2,30.08,East,94,0.0,1.0,89,0.00,,,0.03,Wunderground v.1.15,2013-06-24 02:03:00,
2013-06-23 22:08:00,71.6,68.5,30.08,East,94,0.0,0.0,90,0.00,,,0.03,Wunderground v.1.15,2013-06-24 02:08:00,
2013-06-23 22:13:00,71.5,68.7,30.08,East,94,0.0,1.0,91,0.00,,,0.03,Wunderground v.1.15,2013-06-24 02:13:00,
2013-06-23 22:18:00,71.4,68.6,30.09,East,94,0.0,1.0,91,0.00,,,0.03,Wunderground v.1.15,2013-06-24 02:18:00,
2013-06-23 22:23:00,71.2,68.8,30.09,East,94,0.0,1.0,92,0.00,,,0.03,Wunderground v.1.15,2013-06-24 02:23:00,
2013-06-23 22:28:00,71.0,68.6,30.09,East,94,0.0,0.0,92,0.00,,,0.03,Wunderground v.1.15,2013-06-24 02:28:00,
2013-06-23 22:33:00,71.1,68.3,30.09,East,94,0.0,1.0,91,0.00,,,0.03,Wunderground v.1.15,2013-06-24 02:33:00,
2013-06-23 22:38:00,71.0,68.6,30.10,SSE,152,0.0,1.0,92,0.00,,,0.03,Wunderground v.1.15,2013-06-24 02:38:00,
2013-06-23 22:43:00,70.7,68.3,30.10,SE,145,1.0,2.0,92,0.00,,,0.03,Wunderground v.1.15,2013-06-24 02:43:00,
2013-06-23 22:48:00,70.5,68.1,30.09,SSE,155,0.0,1.0,92,0.00,,,0.03,Wunderground v.1.15,2013-06-24 02:48:00,
2013-06-23 22:53:00,70.6,67.5,30.10,SSE,155,0.0,1.0,90,0.00,,,0.03,Wunderground v.1.15,2013-06-24 02:53:00,
2013-06-23 22:58:00,70.9,67.8,30.10,East,89,0.0,1.0,90,0.00,,,0.03,Wunderground v.1.15,2013-06-24 02:58:00,
2013-06-23 23:03:00,71.2,67.5,30.10,SSE,153,0.0,1.0,88,0.00,,,0.03,Wunderground v.1.15,2013-06-24 03:03:00,
2013-06-23 23:08:00,71.1,68.0,30.10,SSE,153,0.0,1.0,90,0.00,,,0.03,Wunderground v.1.15,2013-06-24 03:08:00,
2013-06-23 23:13:00,70.8,68.4,30.10,SSE,153,0.0,2.0,92,0.00,,,0.03,Wunderground v.1.15,2013-06-24 03:13:00,
2013-06-23 23:18:00,70.4,68.0,30.11,SSE,147,0.0,1.0,92,0.00,,,0.03,Wunderground v.1.15,2013-06-24 03:18:00,
2013-06-23 23:23:00,70.5,68.1,30.11,SSE,162,0.0,1.0,92,0.00,,,0.03,Wunderground v.1.15,2013-06-24 03:23:00,
2013-06-23 23:28:00,70.6,67.5,30.11,SSE,162,0.0,0.0,90,0.00,,,0.03,Wunderground v.1.15,2013-06-24 03:28:00,
2013-06-23 23:33:00,70.7,67.3,30.11,SSE,162,0.0,0.0,89,0.00,,,0.03,Wunderground v.1.15,2013-06-24 03:33:00,
2013-06-23 23:38:00,70.6,67.5,30.11,SE,145,1.0,1.0,90,0.00,,,0.03,Wunderground v.1.15,2013-06-24 03:38:00,
2013-06-23 23:43:00,70.6,67.5,30.12,SSE,147,0.0,2.0,90,0.00,,,0.03,Wunderground v.1.15,2013-06-24 03:43:00,
2013-06-23 23:48:00,70.5,67.7,30.11,SSE,166,0.0,1.0,91,0.00,,,0.03,Wunderground v.1.15,2013-06-24 03:48:00,
2013-06-23 23:53:00,70.4,67.6,30.11,South,187,0.0,1.0,91,0.00,,,0.03,Wunderground v.1.15,2013-06-24 03:53:00,
2013-06-23 23:59:00,70.7,68.3,30.11,SSW,202,1.0,2.0,92,0.00,,,0.03,Wunderground v.1.15,2013-06-24 03:59:00,